Deer Park, WA
on Thursday, December 20, 2012

Thursday
Previous Day Next Day
Daily Summary
 ActualAverageRecord
Temperature
Mean Temperature °F 24°F  
Max Temperature 36°F 31°F 41°F (2004)
Min Temperature 29°F 18°F -17°F (2008)
Degree Days
Heating Degree Days 32 40  
Month to date heating degree days 638 779  
Since 1 July heating degree days 2375 2782  
Cooling Degree Days 0 0  
Month to date cooling degree days 0 0  
Year to date cooling degree days 232 187  
Moisture
Dew Point 30°F   
Average Humidity 91    
Maximum Humidity 100    
Minimum Humidity 82    
Precipitation
Precipitation 0.20 in 0.09 in 0.24 in (2013)
Month to date precipitation 1.92 1.80  
Year to date precipitation 26.03 21.19  
Wind
Wind Speed 4 mph   
Max Wind Speed 10 mph   
Max Gust Speed 16 mph   
Visibility 4 miles   
Events Fog , Snow   

Key: T is trace of precipitation, MM is missing value
Source: NWS Daily Summary
Time(PST)TemperatureDew PointHumidity Pressure Visibility Wind DirectionWind SpeedGust SpeedPrecipitationEvents Conditions
12:04 AM 30.2°F 28.4°F 93% 29.90 in 1.2 miles East 4.6 mph - 0.00 in Snow Light Snow
12:18 AM 28.4°F 28.4°F 100% 29.89 in 1.0 miles ENE 5.8 mph - 0.00 in Snow Light Snow
12:53 AM 28.9°F 28.0°F 96% 29.95 in 1.5 miles ENE 3.5 mph - 0.00 in Snow Light Snow
1:02 AM 28.4°F 28.4°F 100% 29.88 in 1.0 miles NE 3.5 mph - 0.00 in Snow Light Snow
1:12 AM 28.4°F 28.4°F 100% 29.87 in 1.0 miles NE 3.5 mph - 0.00 in Snow Light Snow
1:42 AM 30.2°F 28.4°F 93% 29.88 in 1.0 miles Calm Calm - 0.00 in Snow Light Snow
1:53 AM 30.0°F 28.9°F 96% 29.95 in 0.8 miles Variable 3.5 mph - 0.00 in Snow Light Snow
2:15 AM 30.2°F 28.4°F 93% 29.87 in 1.5 miles East 4.6 mph - 0.00 in Snow Light Snow
2:35 AM 30.2°F 28.4°F 93% 29.87 in 1.0 miles East 4.6 mph - 0.00 in Snow Light Snow
2:44 AM 30.2°F 28.4°F 93% 29.87 in 0.8 miles ESE 4.6 mph - 0.00 in Snow Light Snow
2:53 AM 30.0°F 28.9°F 96% 29.94 in 0.8 miles ESE 4.6 mph - 0.00 in Snow Light Snow
3:00 AM 30.2°F 28.4°F 93% 29.87 in 0.8 miles East 5.8 mph - 0.00 in Snow Light Snow
3:12 AM 30.2°F 28.4°F 93% 29.87 in 0.5 miles ESE 4.6 mph - 0.00 in Fog , Snow Snow
3:53 AM 30.0°F 30.0°F 100% 29.93 in 0.8 miles ESE 3.5 mph - 0.00 in Snow Light Snow
4:33 AM 30.2°F 30.2°F 100% 29.85 in 0.8 miles ESE 4.6 mph - 0.00 in Snow Light Snow
4:53 AM 30.9°F 30.0°F 96% 29.91 in 0.8 miles Calm Calm - 0.00 in Snow Light Snow
5:06 AM 30.2°F 30.2°F 100% 29.85 in 1.0 miles East 3.5 mph - 0.00 in Snow Light Snow
5:41 AM 30.2°F 30.2°F 100% 29.85 in 0.8 miles ESE 4.6 mph - 0.00 in Snow Light Snow
5:53 AM 30.9°F 30.0°F 96% 29.91 in 0.8 miles ESE 5.8 mph - 0.00 in Snow Light Snow
6:13 AM 30.2°F 30.2°F 100% 29.84 in 1.0 miles East 4.6 mph - 0.00 in Snow Light Snow
6:23 AM 30.2°F 30.2°F 100% 29.84 in 1.2 miles Calm Calm - 0.00 in Snow Light Snow
6:49 AM 30.2°F 30.2°F 100% 29.84 in 2.0 miles East 3.5 mph - 0.00 in Snow Light Snow
6:53 AM 30.9°F 30.0°F 96% 29.90 in 1.5 miles ENE 3.5 mph - 0.00 in Snow Light Snow
7:17 AM 30.2°F 30.2°F 100% 29.83 in 2.5 miles NNE 4.6 mph - 0.00 in Snow Light Snow
7:38 AM 30.2°F 30.2°F 100% 29.83 in 1.5 miles ENE 4.6 mph - 0.00 in Snow Light Snow
7:53 AM 30.9°F 30.0°F 96% 29.89 in 1.2 miles NE 5.8 mph - 0.00 in Snow Light Snow
8:03 AM 30.2°F 30.2°F 100% 29.83 in 0.5 miles ENE 4.6 mph - 0.00 in Fog , Snow Snow
8:31 AM 32.0°F 30.2°F 93% 29.81 in 1.2 miles NE 5.8 mph - 0.00 in Snow Light Snow
8:39 AM 32.0°F 30.2°F 93% 29.81 in 3.0 miles NNE 8.1 mph - 0.00 in Snow Light Snow
8:53 AM 32.0°F 30.9°F 96% 29.88 in 8.0 miles NNE 4.6 mph - 0.00 in Snow Light Snow
9:53 AM 33.1°F 30.9°F 92% 29.88 in 9.0 miles ENE 6.9 mph - 0.00 in   Overcast
10:18 AM 33.8°F 30.2°F 87% 29.82 in 2.0 miles NE 8.1 mph - 0.01 in Snow Light Snow
10:41 AM 33.8°F 30.2°F 87% 29.81 in 1.5 miles East 4.6 mph - 0.01 in Snow Light Snow
10:50 AM 33.8°F 30.2°F 87% 29.80 in 3.0 miles East 5.8 mph - 0.01 in Snow Light Snow
10:53 AM 34.0°F 30.9°F 89% 29.86 in 3.0 miles East 6.9 mph - 0.01 in Snow Light Snow
10:59 AM 33.8°F 30.2°F 87% 29.79 in 1.8 miles East 6.9 mph - 0.00 in Snow Light Snow
11:11 AM 33.8°F 30.2°F 87% 29.79 in 0.8 miles East 8.1 mph 16.1 mph 0.01 in Snow Light Snow
11:15 AM 33.8°F 30.2°F 87% 29.78 in 1.0 miles East 8.1 mph - 0.01 in Snow Light Snow
11:34 AM 33.8°F 32.0°F 93% 29.77 in 2.5 miles East 8.1 mph - 0.02 in Snow Light Snow
11:41 AM 33.8°F 32.0°F 93% 29.77 in 7.0 miles East 5.8 mph - 0.02 in Snow Light Snow
11:53 AM 34.0°F 32.0°F 92% 29.82 in 4.0 miles ENE 8.1 mph - 0.02 in Snow Light Snow
12:53 PM 34.0°F 32.0°F 92% 29.81 in 10.0 miles North 4.6 mph - 0.02 in   Overcast
1:53 PM 34.0°F 32.0°F 92% 29.79 in 10.0 miles NE 4.6 mph - 0.03 in   Overcast
2:53 PM 34.0°F 30.9°F 89% 29.79 in 10.0 miles NE 5.8 mph - 0.03 in   Overcast
3:53 PM 33.1°F 30.9°F 92% 29.80 in 10.0 miles NE 5.8 mph - 0.01 in   Overcast
4:53 PM 32.0°F 30.9°F 96% 29.81 in 10.0 miles NNE 3.5 mph - 0.02 in   Overcast
5:53 PM 33.1°F 30.9°F 92% 29.82 in 10.0 miles Calm Calm - 0.01 in   Overcast
6:53 PM 30.9°F 30.0°F 96% 29.84 in 10.0 miles Calm Calm - 0.01 in   Overcast
7:53 PM 30.9°F 30.0°F 96% 29.87 in 10.0 miles East 3.5 mph - N/A   Overcast
8:53 PM 34.0°F 28.9°F 82% 29.88 in 10.0 miles SSE 4.6 mph - N/A   Overcast
9:53 PM 35.1°F 30.9°F 85% 29.90 in 10.0 miles SSE 3.5 mph - 0.01 in   Overcast
10:24 PM 33.8°F 32.0°F 93% 29.85 in 10.0 miles Calm Calm - 0.00 in   Overcast
10:53 PM 35.1°F 32.0°F 89% 29.91 in 10.0 miles South 5.8 mph - 0.01 in   Overcast
11:06 PM 33.8°F 32.0°F 93% 29.86 in 10.0 miles South 5.8 mph - 0.01 in   Overcast
11:53 PM 33.1°F 33.1°F 100% 29.91 in 10.0 miles Calm Calm - 0.02 in   Overcast
Moon Phase
Dec. 20 Dec. 28 Jan. 04 Jan. 11 Jan. 18
Sunrise:07:36 AM (PST) Moon Rise:11:40 AM (PST)12/20
Sunset:03:58 PM (PST) Moon Set:12:03 AM (PST)12/20

Copyright © 2014 The Weather Underground, Inc.